Weather History for PAEG - November, 2013

Change the Weather History Date:

Tuesday, November 5, 2013

  Actual Average (WUND) Record (WUND)
Temperature  
Mean Temperature 12 °F -  
Max Temperature 19 °F - - (-1)
Min Temperature 5 °F - - (-1)
Degree Days  
Heating Degree Days 53    
Moisture  
Dew Point 10 °F    
Average Humidity 84    
Maximum Humidity 88    
Minimum Humidity 77    
Precipitation  
Precipitation 0.00 in - - ()
Sea Level Pressure  
Sea Level Pressure 29.78 in    
Wind  
Wind Speed 0 mph (NE)    
Max Wind Speed 5 mph    
Max Gust Speed -    
Visibility 9 miles    
Events Snow    
Averages and records for this station are not official NWS values.
T = Trace of Precipitation, MM = Missing Value Source: NWS Daily Summary

Daily Weather History Graph

Daily Weather History Graph

Search for Another Location

Airport or City:

Trip Planner

Search our weather history database for the weather conditions in past years. The results will help you decide how hot, cold, wet, or windy it might be!

Date:

Astronomy

Nov. 05, 2013 Rise Set
Actual Time 8:26 AM AKST 3:48 PM AKST
Civil Twilight 7:29 AM AKST 4:45 PM AKST
Nautical Twilight 6:30 AM AKST 5:45 PM AKST
Astronomical Twilight 5:33 AM AKST 6:41 PM AKST
Moon 11:34 AM AKST (11/5) 5:14 PM AKST (11/5)
Length of Visible Light 9h 15m
Length of Day
7h 21m
Waxing Crescent, 7% of the Moon is Illuminated
Nov 5
Waxing Crescent
Nov 9
First Quarter
Nov 17
Full
Nov 25
Last Quarter
Dec 2
New

Hourly Weather History & Observations

Time (AKST) Temp. Windchill Dew Point Humidity Pressure Visibility Wind Dir Wind Speed Gust Speed Precip Events Conditions
12:53 AM 6.1 °F - 1.9 °F 83% 29.55 in 10.0 mi Calm Calm - N/A   Clear
1:53 AM 5.0 °F - 1.9 °F 87% 29.56 in 10.0 mi Calm Calm - N/A   Clear
2:53 AM 5.0 °F - 1.0 °F 84% 29.57 in 10.0 mi Calm Calm - N/A   Clear
3:53 AM 7.0 °F - 3.9 °F 87% 29.58 in 10.0 mi Calm Calm - N/A   Overcast
4:53 AM 10.0 °F - 7.0 °F 87% 29.59 in 10.0 mi Calm Calm - N/A   Overcast
5:53 AM 10.0 °F - 7.0 °F 87% 29.60 in 10.0 mi Calm Calm - N/A   Mostly Cloudy
6:53 AM 7.0 °F - 3.9 °F 87% 29.63 in 10.0 mi Calm Calm - N/A   Clear
7:53 AM 7.0 °F - 3.9 °F 87% 29.65 in 10.0 mi Calm Calm - N/A   Clear
8:53 AM 8.1 °F - 3.9 °F 83% 29.68 in 10.0 mi Calm Calm - N/A   Clear
9:53 AM 12.0 °F - 9.0 °F 88% 29.70 in 10.0 mi Calm Calm - N/A   Clear
10:53 AM 16.0 °F - 12.9 °F 88% 29.74 in 10.0 mi Calm Calm - N/A   Clear
11:53 AM 17.1 °F 10.0 °F 12.0 °F 81% 29.77 in 10.0 mi NE 4.6 mph - N/A   Partly Cloudy
12:53 PM 17.1 °F - 12.0 °F 81% 29.80 in 10.0 mi Calm Calm - N/A   Scattered Clouds
1:53 PM 18.0 °F - 12.9 °F 81% 29.83 in 10.0 mi Calm Calm - N/A   Overcast
2:53 PM 18.0 °F - 14.0 °F 84% 29.84 in 10.0 mi Calm Calm - N/A   Overcast
3:53 PM - - - N/A% - - North - - N/A   Unknown
4:53 PM 19.0 °F - 14.0 °F 81% 29.85 in 10.0 mi Calm Calm - N/A   Overcast
5:23 PM 19.0 °F - 12.9 °F 77% 29.87 in 10.0 mi Calm Calm - N/A   Overcast
5:30 PM 19.0 °F - 12.9 °F 77% 29.87 in 10.0 mi Calm Calm - N/A   Overcast
5:53 PM 19.0 °F - 12.9 °F 77% 29.89 in 10.0 mi Calm Calm - N/A   Unknown
6:53 PM 19.0 °F - 14.0 °F 81% 29.92 in - Calm Calm - 0.00 in Snow Light Snow
7:09 PM 19.0 °F - 14.0 °F 81% 29.92 in - Calm Calm - 0.00 in   Overcast
7:17 PM 18.0 °F - 14.0 °F 84% 29.92 in 2.0 mi Calm Calm - 0.00 in   Overcast
8:53 PM 18.0 °F - 15.1 °F 88% 29.96 in 4.0 mi Calm Calm - N/A Snow Light Snow
9:53 PM 16.0 °F - 12.9 °F 88% 29.99 in 5.0 mi Calm Calm - 0.00 in   Overcast
10:53 PM 14.0 °F - 10.9 °F 88% 30.02 in 6.0 mi Calm Calm - 0.00 in Snow Light Snow
11:53 PM 14.0 °F - 10.9 °F 88% 30.06 in 3.0 mi Calm Calm - 0.00 in Snow Light Snow